OYGEA EKAH-EKRK

Flight info

Callsign OYGEA
Flight time 0h 34m
Altitude 14000
Route TESPI/N0290F130 DCT ROSBI DCT INPUN DCT TNO
Aircraft STAR/L-SDFGRWY/S

Departure

Time 2026-04-30 18:56
Airport Aarhus Airport (EKAH)

Arrival

Time 2026-04-30 19:31
Airport Copenhagen Roskilde Airport (EKRK)
Time Latitude Longitude Altitude Speed Heading
2026-04-30 18:36 56.30751 10.62329 84 ft 0 kts 11°
2026-04-30 18:48 56.30742 10.62325 86 ft 2 kts 11°
2026-04-30 18:48 56.30726 10.62319 84 ft 2 kts 14°
2026-04-30 18:48 56.30711 10.62308 84 ft 2 kts 54°
2026-04-30 18:49 56.30710 10.62300 88 ft 0 kts 95°
2026-04-30 18:51 56.30709 10.62311 84 ft 9 kts 95°
2026-04-30 18:51 56.30702 10.62422 88 ft 0 kts 132°
2026-04-30 18:52 56.30674 10.62482 84 ft 15 kts 114°
2026-04-30 18:52 56.30654 10.62700 86 ft 18 kts 108°
2026-04-30 18:52 56.30631 10.62925 85 ft 17 kts 101°
2026-04-30 18:52 56.30527 10.62999 84 ft 24 kts 191°
2026-04-30 18:53 56.30373 10.62947 84 ft 20 kts 191°
2026-04-30 18:53 56.30322 10.62930 84 ft 0 kts 189°
2026-04-30 18:55 56.30290 10.62920 84 ft 14 kts 190°
2026-04-30 18:55 56.30254 10.62650 85 ft 21 kts 279°
2026-04-30 18:55 56.30260 10.62582 87 ft 0 kts 279°
2026-04-30 18:56 56.30368 10.61547 88 ft 99 kts 281°
2026-04-30 18:56 56.30512 10.60121 380 ft 132 kts 285°
2026-04-30 18:56 56.30822 10.58538 963 ft 130 kts 288°
2026-04-30 18:57 56.31267 10.55650 2351 ft 129 kts 285°
2026-04-30 18:57 56.31489 10.53987 2776 ft 143 kts 284°
2026-04-30 18:57 56.31739 10.52118 3034 ft 163 kts 284°
2026-04-30 18:58 56.32217 10.48551 3205 ft 184 kts 284°
2026-04-30 18:58 56.32232 10.46260 3235 ft 192 kts 254°
2026-04-30 18:58 56.31431 10.44364 3420 ft 186 kts 213°
2026-04-30 18:59 56.29335 10.44943 4783 ft 155 kts 123°
2026-04-30 19:00 56.28189 10.50782 6083 ft 207 kts 105°
2026-04-30 19:00 56.27646 10.53358 6283 ft 235 kts 116°
2026-04-30 19:00 56.25720 10.58531 6414 ft 260 kts 127°
2026-04-30 19:01 56.23365 10.63608 6733 ft 255 kts 129°
2026-04-30 19:01 56.22275 10.65860 7588 ft 225 kts 129°
2026-04-30 19:02 56.20395 10.69706 9350 ft 188 kts 129°
2026-04-30 19:02 56.18699 10.72865 10932 ft 166 kts 135°
2026-04-30 19:03 56.17109 10.75608 12269 ft 155 kts 131°
2026-04-30 19:03 56.15562 10.78329 13468 ft 157 kts 131°
2026-04-30 19:04 56.13854 10.81310 14151 ft 194 kts 131°
2026-04-30 19:04 56.11696 10.85051 14378 ft 235 kts 132°
2026-04-30 19:05 56.09215 10.89366 14424 ft 259 kts 133°
2026-04-30 19:05 56.06576 10.93943 14435 ft 270 kts 133°
2026-04-30 19:06 56.03823 10.98712 13980 ft 289 kts 133°
2026-04-30 19:06 56.02358 11.01239 13656 ft 293 kts 133°
2026-04-30 19:06 55.99434 11.06284 13235 ft 291 kts 133°
2026-04-30 19:07 55.96521 11.11296 12678 ft 289 kts 133°
2026-04-30 19:07 55.95090 11.13757 12398 ft 288 kts 133°
2026-04-30 19:08 55.92218 11.18682 11992 ft 283 kts 134°
2026-04-30 19:08 55.89364 11.23573 11263 ft 290 kts 134°
2026-04-30 19:08 55.87896 11.26077 10811 ft 294 kts 134°
2026-04-30 19:09 55.85039 11.30946 10043 ft 265 kts 134°
2026-04-30 19:09 55.83759 11.33130 9802 ft 245 kts 134°
2026-04-30 19:09 55.82562 11.35170 9568 ft 231 kts 134°
2026-04-30 19:10 55.80357 11.38917 9104 ft 210 kts 133°
2026-04-30 19:10 55.78317 11.42381 8651 ft 196 kts 133°
2026-04-30 19:11 55.77376 11.44080 8423 ft 189 kts 125°
2026-04-30 19:11 55.75704 11.47541 7966 ft 184 kts 129°
2026-04-30 19:11 55.74842 11.49197 7703 ft 181 kts 129°
2026-04-30 19:12 55.73995 11.50798 7560 ft 170 kts 130°
2026-04-30 19:12 55.73206 11.52265 7493 ft 159 kts 130°
2026-04-30 19:12 55.72460 11.53638 7464 ft 155 kts 130°
2026-04-30 19:13 55.70917 11.56485 7441 ft 164 kts 130°
2026-04-30 19:13 55.69321 11.59442 7433 ft 167 kts 130°
2026-04-30 19:13 55.68516 11.60932 7433 ft 167 kts 130°
2026-04-30 19:14 55.67708 11.62422 7431 ft 168 kts 130°
2026-04-30 19:14 55.66902 11.63909 7430 ft 168 kts 130°
2026-04-30 19:14 55.66093 11.65396 7430 ft 168 kts 130°
2026-04-30 19:14 55.65283 11.66885 7433 ft 168 kts 130°
2026-04-30 19:15 55.64484 11.68352 7435 ft 168 kts 130°
2026-04-30 19:15 55.62859 11.71338 7432 ft 168 kts 130°
2026-04-30 19:15 55.62049 11.72825 7431 ft 168 kts 130°
2026-04-30 19:16 55.61235 11.74314 7434 ft 168 kts 130°
2026-04-30 19:16 55.60437 11.75817 7429 ft 166 kts 123°
2026-04-30 19:16 55.59423 11.79417 7430 ft 163 kts 110°
2026-04-30 19:17 55.58967 11.81255 7433 ft 163 kts 109°
2026-04-30 19:17 55.58012 11.85168 6522 ft 196 kts 112°
2026-04-30 19:17 55.57325 11.87414 5617 ft 218 kts 117°
2026-04-30 19:18 55.56072 11.91570 4107 ft 238 kts 115°
2026-04-30 19:18 55.55050 11.95012 3161 ft 239 kts 116°
2026-04-30 19:18 55.54274 11.97573 2676 ft 230 kts 115°
2026-04-30 19:19 55.53559 11.99990 2423 ft 214 kts 115°
2026-04-30 19:19 55.52918 12.02139 2205 ft 202 kts 116°
2026-04-30 19:19 55.51695 12.06195 2041 ft 172 kts 115°
2026-04-30 19:20 55.51159 12.07984 2016 ft 158 kts 115°
2026-04-30 19:20 55.50657 12.09663 2006 ft 160 kts 115°
2026-04-30 19:20 55.49574 12.13255 2000 ft 160 kts 115°
2026-04-30 19:21 55.49067 12.14928 1997 ft 153 kts 115°
2026-04-30 19:21 55.48106 12.18129 1995 ft 143 kts 114°
2026-04-30 19:22 55.47194 12.21155 1995 ft 137 kts 114°
2026-04-30 19:22 55.45870 12.25527 1995 ft 132 kts 114°
2026-04-30 19:23 55.44598 12.29762 1995 ft 128 kts 107°
2026-04-30 19:24 55.45355 12.31445 1995 ft 99 kts 336°
2026-04-30 19:24 55.45951 12.30832 1995 ft 100 kts 332°
2026-04-30 19:24 55.47238 12.29888 1996 ft 102 kts 341°
2026-04-30 19:25 55.49305 12.28905 1996 ft 102 kts 348°
2026-04-30 19:26 55.50670 12.28510 1995 ft 102 kts 348°
2026-04-30 19:26 55.52052 12.28038 1993 ft 100 kts 347°
2026-04-30 19:26 55.52733 12.27808 1994 ft 99 kts 347°
2026-04-30 19:27 55.54088 12.27369 1993 ft 98 kts 348°
2026-04-30 19:27 55.55086 12.26079 1997 ft 96 kts 300°
2026-04-30 19:28 55.55353 12.25009 1994 ft 97 kts 298°
2026-04-30 19:28 55.55962 12.22454 1245 ft 134 kts 296°
2026-04-30 19:29 55.56701 12.19740 734 ft 109 kts 298°
2026-04-30 19:29 55.57029 12.18574 635 ft 103 kts 296°
2026-04-30 19:30 55.57935 12.15267 310 ft 97 kts 298°
2026-04-30 19:30 55.58509 12.13271 145 ft 58 kts 300°
2026-04-30 19:31 55.58676 12.12938 143 ft 0 kts 30°
2026-04-30 19:31 55.58710 12.12973 143 ft 6 kts 31°
2026-04-30 19:31 55.58712 12.12975 143 ft 0 kts 31°
2026-04-30 19:32 55.58757 12.13022 144 ft 14 kts 31°
2026-04-30 19:32 55.58862 12.13115 146 ft 16 kts 26°
2026-04-30 19:32 55.58962 12.13200 148 ft 17 kts 26°
2026-04-30 19:32 55.59070 12.13291 148 ft 14 kts 25°
2026-04-30 19:33 55.59135 12.13349 151 ft 10 kts 27°
2026-04-30 19:33 55.59186 12.13263 150 ft 16 kts 299°
2026-04-30 19:33 55.59231 12.13115 152 ft 15 kts 298°
2026-04-30 19:33 55.59282 12.12927 151 ft 19 kts 297°
2026-04-30 19:34 55.59337 12.12734 149 ft 17 kts 295°
2026-04-30 19:34 55.59388 12.12594 148 ft 11 kts 356°
2026-04-30 19:34 55.59500 12.12660 148 ft 7 kts 294°
2026-04-30 19:35 55.59503 12.12649 147 ft 0 kts 294°